DLH95H EDDH-EDDN

Flight info

Callsign DLH95H
Flight time 0h 51m
Altitude 33000
Route AMLUH2G AMLUH M852 POVEL DCT ZUCKA DCT SOMIX DCT MIPSI/N0437F340 DCT VAGAB DCT SULUS DCT DODAS DODAS1V
Aircraft A320/M-SDE3FGHIRWY/LB1

Departure

Time 2026-04-23 09:44
Airport Hamburg Helmut Schmidt Airport (EDDH)

Arrival

Time 2026-04-23 10:35
Airport Nuremberg Airport (EDDN)
Time Latitude Longitude Altitude Speed Heading
2026-04-23 09:24 53.63294 10.00356 50 ft 0 kts 87°
2026-04-23 09:37 53.63294 10.00353 49 ft 2 kts 87°
2026-04-23 09:37 53.63293 10.00323 49 ft 3 kts 87°
2026-04-23 09:37 53.63292 10.00295 49 ft 2 kts 89°
2026-04-23 09:37 53.63290 10.00266 48 ft 2 kts 79°
2026-04-23 09:38 53.63293 10.00239 46 ft 2 kts 150°
2026-04-23 09:38 53.63301 10.00233 43 ft 0 kts 172°
2026-04-23 09:40 53.63299 10.00234 43 ft 2 kts 172°
2026-04-23 09:40 53.63265 10.00224 48 ft 7 kts 206°
2026-04-23 09:40 53.63227 10.00181 46 ft 7 kts 198°
2026-04-23 09:40 53.63178 10.00185 46 ft 7 kts 175°
2026-04-23 09:41 53.63126 10.00192 45 ft 8 kts 178°
2026-04-23 09:41 53.63074 10.00184 44 ft 7 kts 199°
2026-04-23 09:41 53.63041 10.00153 45 ft 4 kts 212°
2026-04-23 09:41 53.63024 10.00135 46 ft 4 kts 212°
2026-04-23 09:42 53.62972 10.00076 45 ft 13 kts 216°
2026-04-23 09:42 53.62917 9.99972 44 ft 11 kts 246°
2026-04-23 09:42 53.62887 9.99876 48 ft 7 kts 241°
2026-04-23 09:42 53.62867 9.99807 48 ft 7 kts 247°
2026-04-23 09:43 53.62895 9.99724 49 ft 12 kts 339°
2026-04-23 09:43 53.63105 9.99534 49 ft 68 kts 333°
2026-04-23 09:43 53.63726 9.99001 47 ft 130 kts 333°
2026-04-23 09:43 53.64665 9.98188 217 ft 163 kts 332°
2026-04-23 09:44 53.65682 9.97300 801 ft 168 kts 332°
2026-04-23 09:44 53.66755 9.96350 1314 ft 182 kts 332°
2026-04-23 09:44 53.67940 9.95385 1832 ft 195 kts 341°
2026-04-23 09:44 53.69307 9.94920 2408 ft 205 kts 355°
2026-04-23 09:45 53.70754 9.94848 3017 ft 212 kts 359°
2026-04-23 09:45 53.72234 9.95131 3641 ft 218 kts 16°
2026-04-23 09:45 53.73601 9.96276 4288 ft 223 kts 38°
2026-04-23 09:45 53.74598 9.98267 4956 ft 225 kts 63°
2026-04-23 09:46 53.74948 10.00826 5625 ft 226 kts 92°
2026-04-23 09:46 53.74535 10.03367 6301 ft 226 kts 118°
2026-04-23 09:46 53.73725 10.05625 7003 ft 224 kts 122°
2026-04-23 09:46 53.72897 10.07915 7418 ft 239 kts 121°
2026-04-23 09:47 53.72015 10.10415 7871 ft 255 kts 121°
2026-04-23 09:47 53.71102 10.13065 8497 ft 267 kts 120°
2026-04-23 09:47 53.70163 10.15835 9180 ft 276 kts 122°
2026-04-23 09:47 53.68829 10.18164 9881 ft 281 kts 149°
2026-04-23 09:48 53.67033 10.19515 10649 ft 284 kts 161°
2026-04-23 09:48 53.65157 10.20625 11453 ft 287 kts 161°
2026-04-23 09:48 53.63278 10.21758 12246 ft 289 kts 160°
2026-04-23 09:48 53.61344 10.22949 12747 ft 302 kts 160°
2026-04-23 09:49 53.59338 10.24209 13282 ft 313 kts 160°
2026-04-23 09:49 53.57246 10.25406 13821 ft 322 kts 162°
2026-04-23 09:49 53.55081 10.26549 14350 ft 332 kts 163°
2026-04-23 09:49 53.52845 10.27723 14829 ft 342 kts 163°
2026-04-23 09:50 53.50502 10.28892 15115 ft 358 kts 165°
2026-04-23 09:50 53.48077 10.30008 15667 ft 364 kts 165°
2026-04-23 09:50 53.45620 10.31096 16282 ft 368 kts 166°
2026-04-23 09:50 53.43133 10.32191 16897 ft 371 kts 165°
2026-04-23 09:51 53.40625 10.33303 17494 ft 374 kts 165°
2026-04-23 09:51 53.38101 10.34424 18084 ft 378 kts 165°
2026-04-23 09:51 53.35547 10.35563 18662 ft 381 kts 165°
2026-04-23 09:51 53.32980 10.36714 19228 ft 384 kts 165°
2026-04-23 09:52 53.30421 10.37865 19782 ft 387 kts 165°
2026-04-23 09:52 53.27775 10.39052 20340 ft 391 kts 165°
2026-04-23 09:52 53.25172 10.40216 20868 ft 394 kts 165°
2026-04-23 09:52 53.22511 10.41404 21397 ft 397 kts 165°
2026-04-23 09:53 53.19829 10.42600 21846 ft 400 kts 165°
2026-04-23 09:53 53.17135 10.43797 22086 ft 403 kts 165°
2026-04-23 09:53 53.14419 10.45002 22603 ft 405 kts 165°
2026-04-23 09:53 53.11692 10.46209 23088 ft 407 kts 165°
2026-04-23 09:54 53.08941 10.47430 23551 ft 410 kts 165°
2026-04-23 09:54 53.06172 10.48662 23994 ft 413 kts 165°
2026-04-23 09:54 53.03390 10.49898 24420 ft 416 kts 165°
2026-04-23 09:54 53.00584 10.51144 24831 ft 419 kts 165°
2026-04-23 09:55 52.97760 10.52396 25230 ft 421 kts 165°
2026-04-23 09:55 52.94925 10.53650 25610 ft 424 kts 165°
2026-04-23 09:55 52.92066 10.54907 25983 ft 426 kts 165°
2026-04-23 09:55 52.89189 10.56166 26351 ft 428 kts 165°
2026-04-23 09:56 52.86297 10.57434 26709 ft 431 kts 165°
2026-04-23 09:56 52.83397 10.58708 27058 ft 433 kts 165°
2026-04-23 09:56 52.80477 10.60002 27398 ft 435 kts 165°
2026-04-23 09:56 52.77543 10.61309 27722 ft 438 kts 165°
2026-04-23 09:57 52.74602 10.62626 28051 ft 440 kts 165°
2026-04-23 09:57 52.71639 10.63952 28371 ft 442 kts 165°
2026-04-23 09:57 52.68662 10.65283 28672 ft 444 kts 165°
2026-04-23 09:57 52.65678 10.66612 28971 ft 446 kts 165°
2026-04-23 09:58 52.62677 10.67944 29245 ft 448 kts 165°
2026-04-23 09:58 52.59660 10.69282 29517 ft 450 kts 165°
2026-04-23 09:58 52.56629 10.70623 29780 ft 452 kts 165°
2026-04-23 09:58 52.53592 10.71959 30039 ft 453 kts 165°
2026-04-23 09:59 52.50539 10.73298 30282 ft 455 kts 165°
2026-04-23 09:59 52.47472 10.74639 30511 ft 457 kts 165°
2026-04-23 09:59 52.44393 10.75983 30748 ft 458 kts 165°
2026-04-23 09:59 52.41312 10.77329 30963 ft 460 kts 165°
2026-04-23 10:00 52.38219 10.78680 31248 ft 459 kts 166°
2026-04-23 10:00 52.35086 10.79671 31541 ft 458 kts 174°
2026-04-23 10:00 52.31952 10.80119 31827 ft 458 kts 175°
2026-04-23 10:00 52.28786 10.80551 32132 ft 457 kts 175°
2026-04-23 10:01 52.25617 10.80992 32405 ft 456 kts 175°
2026-04-23 10:01 52.22452 10.81438 32682 ft 456 kts 175°
2026-04-23 10:01 52.19293 10.81882 32924 ft 457 kts 175°
2026-04-23 10:02 52.13010 10.82754 33009 ft 448 kts 175°
2026-04-23 10:02 52.06825 10.83661 33009 ft 446 kts 175°
2026-04-23 10:03 52.00648 10.84628 33010 ft 445 kts 175°
2026-04-23 10:03 51.95516 10.85421 33009 ft 446 kts 175°
2026-04-23 10:04 51.89345 10.86365 33008 ft 446 kts 175°
2026-04-23 10:04 51.83167 10.87294 33005 ft 445 kts 175°
2026-04-23 10:05 51.76996 10.88226 32999 ft 446 kts 175°
2026-04-23 10:05 51.70810 10.89149 32997 ft 446 kts 175°
2026-04-23 10:06 51.64659 10.90482 32996 ft 447 kts 169°
2026-04-23 10:06 51.58539 10.92312 32995 ft 447 kts 170°
2026-04-23 10:07 51.52420 10.94119 32998 ft 447 kts 170°
2026-04-23 10:07 51.46298 10.95930 33005 ft 447 kts 169°
2026-04-23 10:08 51.40195 10.97744 33009 ft 446 kts 169°
2026-04-23 10:08 51.34083 10.99555 33010 ft 446 kts 169°
2026-04-23 10:09 51.24934 11.02019 33007 ft 446 kts 177°
2026-04-23 10:09 51.18735 11.02122 33008 ft 445 kts 180°
2026-04-23 10:10 51.12541 11.02192 33004 ft 445 kts 180°
2026-04-23 10:10 51.06357 11.02256 33002 ft 445 kts 180°
2026-04-23 10:11 51.00167 11.02310 32999 ft 444 kts 180°
2026-04-23 10:11 50.93988 11.02355 32993 ft 444 kts 181°
2026-04-23 10:12 50.87917 11.00845 32987 ft 443 kts 199°
2026-04-23 10:12 50.82099 10.97592 32987 ft 443 kts 199°
2026-04-23 10:13 50.76274 10.94374 32985 ft 444 kts 199°
2026-04-23 10:13 50.70434 10.91160 32990 ft 445 kts 199°
2026-04-23 10:14 50.64586 10.87947 32983 ft 445 kts 199°
2026-04-23 10:14 50.58727 10.84720 32986 ft 446 kts 199°
2026-04-23 10:15 50.52817 10.81741 32994 ft 446 kts 192°
2026-04-23 10:15 50.46666 10.80437 32996 ft 446 kts 187°
2026-04-23 10:16 50.43575 10.79839 32764 ft 447 kts 187°
2026-04-23 10:16 50.40488 10.79238 32462 ft 446 kts 187°
2026-04-23 10:16 50.37416 10.78638 31725 ft 446 kts 187°
2026-04-23 10:16 50.34350 10.78041 31140 ft 441 kts 187°
2026-04-23 10:17 50.31315 10.77454 30587 ft 437 kts 187°
2026-04-23 10:17 50.28314 10.76876 30029 ft 433 kts 187°
2026-04-23 10:17 50.25333 10.76304 29470 ft 429 kts 187°
2026-04-23 10:17 50.22386 10.75736 28934 ft 426 kts 187°
2026-04-23 10:18 50.19455 10.75174 28391 ft 422 kts 187°
2026-04-23 10:18 50.16557 10.74618 27846 ft 419 kts 187°
2026-04-23 10:18 50.13673 10.74066 27314 ft 415 kts 187°
2026-04-23 10:18 50.10820 10.73521 26786 ft 411 kts 187°
2026-04-23 10:19 50.07988 10.72977 26257 ft 408 kts 187°
2026-04-23 10:19 50.05173 10.72521 25727 ft 405 kts 185°
2026-04-23 10:19 50.02372 10.72210 25216 ft 402 kts 184°
2026-04-23 10:19 49.99594 10.71987 24712 ft 399 kts 183°
2026-04-23 10:20 49.96833 10.71800 24212 ft 396 kts 182°
2026-04-23 10:20 49.94094 10.71612 23724 ft 392 kts 183°
2026-04-23 10:20 49.91375 10.71407 23231 ft 390 kts 183°
2026-04-23 10:20 49.88682 10.71181 22749 ft 387 kts 184°
2026-04-23 10:21 49.86004 10.70936 22277 ft 384 kts 184°
2026-04-23 10:21 49.83345 10.70684 21815 ft 381 kts 184°
2026-04-23 10:21 49.80710 10.70555 21357 ft 378 kts 178°
2026-04-23 10:21 49.78129 10.70927 20891 ft 376 kts 174°
2026-04-23 10:22 49.75506 10.71368 20419 ft 373 kts 174°
2026-04-23 10:22 49.72964 10.71791 19963 ft 371 kts 174°
2026-04-23 10:22 49.70407 10.72235 19498 ft 368 kts 171°
2026-04-23 10:22 49.67962 10.73302 19051 ft 366 kts 156°
2026-04-23 10:23 49.65786 10.75289 18599 ft 363 kts 141°
2026-04-23 10:23 49.64028 10.78059 18147 ft 361 kts 126°
2026-04-23 10:23 49.62804 10.81407 17690 ft 359 kts 111°
2026-04-23 10:23 49.62139 10.85100 17236 ft 357 kts 101°
2026-04-23 10:24 49.61700 10.88856 16792 ft 355 kts 99°
2026-04-23 10:24 49.61338 10.92607 16363 ft 353 kts 98°
2026-04-23 10:24 49.61009 10.96346 15933 ft 351 kts 97°
2026-04-23 10:24 49.60684 11.00061 15515 ft 348 kts 98°
2026-04-23 10:25 49.60354 11.03743 15095 ft 346 kts 98°
2026-04-23 10:25 49.60012 11.07406 14676 ft 344 kts 98°
2026-04-23 10:25 49.59659 11.11049 14260 ft 342 kts 98°
2026-04-23 10:25 49.59303 11.14656 13849 ft 340 kts 98°
2026-04-23 10:26 49.58947 11.18248 13432 ft 338 kts 98°
2026-04-23 10:26 49.58593 11.21818 13007 ft 336 kts 98°
2026-04-23 10:26 49.58239 11.25356 12572 ft 334 kts 99°
2026-04-23 10:26 49.57882 11.28880 12150 ft 332 kts 99°
2026-04-23 10:27 49.57529 11.32383 11712 ft 330 kts 99°
2026-04-23 10:27 49.57177 11.35856 11284 ft 327 kts 99°
2026-04-23 10:27 49.56826 11.39314 10835 ft 326 kts 99°
2026-04-23 10:27 49.56478 11.42753 10410 ft 324 kts 99°
2026-04-23 10:28 49.56132 11.46162 9978 ft 322 kts 99°
2026-04-23 10:28 49.55785 11.49511 9820 ft 310 kts 101°
2026-04-23 10:28 49.55032 11.52535 9689 ft 298 kts 125°
2026-04-23 10:28 49.53613 11.54738 9561 ft 286 kts 147°
2026-04-23 10:29 49.51833 11.55905 9439 ft 274 kts 170°
2026-04-23 10:29 49.49978 11.55908 9307 ft 262 kts 193°
2026-04-23 10:29 49.48304 11.54822 8815 ft 266 kts 216°
2026-04-23 10:29 49.47026 11.52759 8284 ft 270 kts 238°
2026-04-23 10:30 49.46231 11.50136 7770 ft 273 kts 253°
2026-04-23 10:30 49.45928 11.47248 7286 ft 276 kts 270°
2026-04-23 10:30 49.46124 11.44311 6806 ft 278 kts 280°
2026-04-23 10:30 49.46524 11.41448 6339 ft 279 kts 284°
2026-04-23 10:31 49.46973 11.38540 5876 ft 279 kts 281°
2026-04-23 10:31 49.47300 11.35669 5309 ft 264 kts 278°
2026-04-23 10:31 49.47496 11.32947 4730 ft 249 kts 274°
2026-04-23 10:31 49.47634 11.30360 4151 ft 237 kts 276°
2026-04-23 10:32 49.47849 11.27904 3585 ft 227 kts 279°
2026-04-23 10:32 49.48134 11.25561 3048 ft 220 kts 281°
2026-04-23 10:32 49.48417 11.23288 2671 ft 213 kts 280°
2026-04-23 10:32 49.48644 11.21150 2586 ft 192 kts 276°
2026-04-23 10:33 49.48731 11.19166 2354 ft 180 kts 275°
2026-04-23 10:33 49.48894 11.17303 2034 ft 172 kts 281°
2026-04-23 10:33 49.49103 11.15602 1847 ft 152 kts 278°
2026-04-23 10:33 49.49253 11.14061 1648 ft 142 kts 278°
2026-04-23 10:34 49.49398 11.12581 1442 ft 137 kts 278°
2026-04-23 10:34 49.49539 11.11134 1282 ft 138 kts 279°
2026-04-23 10:34 49.49690 11.09679 1116 ft 138 kts 279°
2026-04-23 10:34 49.49820 11.08307 1036 ft 116 kts 278°
2026-04-23 10:35 49.49908 11.07398 1032 ft 45 kts 278°
2026-04-23 10:35 49.49938 11.07074 1026 ft 16 kts 263°
2026-04-23 10:35 49.49859 11.07025 1022 ft 10 kts 160°
2026-04-23 10:35 49.49799 11.07062 1022 ft 2 kts 160°
2026-04-23 10:38 49.49780 11.07077 1025 ft 7 kts 153°
2026-04-23 10:38 49.49752 11.07112 1025 ft 4 kts 128°
2026-04-23 10:39 49.49746 11.07135 1026 ft 1 kts 107°
2026-04-23 10:39 49.49742 11.07155 1023 ft 8 kts 104°
2026-04-23 10:39 49.49701 11.07234 1028 ft 9 kts 164°
2026-04-23 10:39 49.49682 11.07232 1028 ft 8 kts 189°